Tracking 35048 objects as of 19-Aug-2026
HD Live streaming from Space Station
objects crossing your sky now

COSMOS 57 DEB


COSMOS 57 DEB is no longer on orbit


NORAD ID: 1121
Int'l Code: 1965-012Z
Launch date: February 22, 1965
Source: Commonwealth of Independent States (former USSR) (CIS)
Launch site: TYURATAM MISSILE AND SPACE COMPLEX (TTMTR)
Decay date: 1965-03-01

Note: This is SATELLITE DEBRIS
Your satellite tracking list
Your tracking list is empty




NASA's NSSDC Master Catalog

Two Line Element Set (TLE):
1 01121U 65012  Z 65058.18924712  .00533986 +91153-3 +00000-0 0  9993
2 01121 065.1980 281.4683 0023055 047.1043 313.1310 16.26590457000795
Source of the keplerian elements: AFSPC